Ketchikan, AK

8:22 AM AKST on November 15, 2018 (GMT -0900)
Ketchikan International

Weather History for PAKT - October, 2017

Change the Weather History Date:

Sunday, October 8, 2017

  Actual Average Record
Temperature  
Mean Temperature 45 °F -  
Max Temperature 52 °F 54 °F 65 °F (1950)
Min Temperature 39 °F 44 °F 30 °F (2006)
Degree Days  
Heating Degree Days 20    
Moisture  
Dew Point 45 °F    
Average Humidity 94    
Maximum Humidity 100    
Minimum Humidity 87    
Precipitation  
Precipitation 0.12 in - - ()
Sea Level Pressure  
Sea Level Pressure 30.16 in    
Wind  
Wind Speed 6 mph (SE)    
Max Wind Speed 16 mph    
Max Gust Speed 25 mph    
Visibility 7 miles    
Events Rain    
Averages and records for this station are not official NWS values.
T = Trace of Precipitation, MM = Missing Value Source: NWS Daily Summary

Daily Weather History Graph

Daily Weather History Graph

Search for Another Location

Airport or City:

Astronomy

Oct. 08, 2017 Rise Set
Actual Time 7:03 AM AKDT 6:03 PM AKDT
Civil Twilight 6:27 AM AKDT 6:39 PM AKDT
Nautical Twilight 5:45 AM AKDT 7:22 PM AKDT
Astronomical Twilight 5:01 AM AKDT 8:05 PM AKDT
Moon 8:03 PM AKDT (10/8) 10:38 AM AKDT (10/8)
Length of Visible Light 12h 12m
Length of Day
10h 59m
Waning Gibbous, 88% of the Moon is Illuminated
Oct 8
Waning Gibbous
Oct 12
Last Quarter
Oct 19
New
Oct 27
First Quarter
Nov 3
Full

Hourly Weather History & Observations

Time (AKDT) Temp. Windchill Dew Point Humidity Pressure Visibility Wind Dir Wind Speed Gust Speed Precip Events Conditions
12:53 AM 42.1 °F 40.2 °F 41.0 °F 96% 30.18 in 10.0 mi West 3.5 mph - N/A   Clear
1:53 AM 39.9 °F - 39.0 °F 97% 30.18 in 10.0 mi Calm Calm - N/A   Clear
2:53 AM 39.9 °F 36.7 °F 39.0 °F 97% 30.21 in 10.0 mi South 4.6 mph - N/A   Clear
3:53 AM 39.0 °F 36.8 °F 37.9 °F 96% 30.21 in 10.0 mi South 3.5 mph - N/A   Clear
4:53 AM 42.1 °F 38.4 °F 41.0 °F 96% 30.23 in 10.0 mi SSE 5.8 mph - N/A   Clear
5:14 AM 42.1 °F 37.7 °F 41.0 °F 96% 30.22 in 5.0 mi SSE 6.9 mph - N/A   Scattered Clouds
5:17 AM 42.1 °F 39.2 °F 41.0 °F 96% 30.22 in 2.0 mi South 4.6 mph - N/A   Mostly Cloudy
5:24 AM 42.1 °F 39.2 °F 42.1 °F 100% 30.22 in 1.0 mi SSE 4.6 mph - N/A   Mostly Cloudy
5:37 AM 42.1 °F 39.2 °F 42.1 °F 100% 30.22 in 3.0 mi SSE 4.6 mph - N/A   Overcast
5:53 AM 43.0 °F 39.5 °F 42.1 °F 97% 30.23 in 7.0 mi SE 5.8 mph - N/A   Mostly Cloudy
5:59 AM 43.0 °F 38.8 °F 43.0 °F 100% 30.23 in 1.5 mi ESE 6.9 mph - N/A   Mostly Cloudy
6:03 AM 43.0 °F 38.8 °F 43.0 °F 100% 30.23 in 0.8 mi ESE 6.9 mph - N/A   Mist
6:05 AM 42.8 °F 38.0 °F 42.8 °F 100% 30.24 in 1.0 mi ESE 8.1 mph - N/A   Mist
6:53 AM 44.6 °F 42.2 °F 42.8 °F 93% 30.24 in 10.0 mi ESE 4.6 mph - N/A   Overcast
7:53 AM 44.6 °F 42.2 °F 44.6 °F 100% 30.24 in 10.0 mi SSE 4.6 mph - N/A   Overcast
8:44 AM 46.4 °F 42.9 °F 44.6 °F 93% 30.23 in 10.0 mi South 6.9 mph - N/A   Overcast
8:53 AM 46.4 °F 43.5 °F 44.6 °F 93% 30.24 in 10.0 mi SSE 5.8 mph - N/A   Overcast
9:53 AM 46.4 °F 41.9 °F 46.4 °F 100% 30.22 in 10.0 mi SE 9.2 mph - N/A Rain Light Rain
10:53 AM 48.2 °F - 46.4 °F 93% 30.21 in 10.0 mi SSE 6.9 mph - N/A   Overcast
11:53 AM 48.2 °F - 48.2 °F 100% 30.19 in 10.0 mi SE 12.7 mph - N/A Rain Light Rain
12:53 PM 50.0 °F - 46.4 °F 87% 30.16 in 10.0 mi SSE 9.2 mph - N/A   Overcast
1:53 PM 51.8 °F - 50.0 °F 94% 30.12 in 10.0 mi SE 16.1 mph 25.3 mph N/A   Overcast
2:53 PM 51.8 °F - 48.2 °F 88% 30.12 in 6.0 mi SE 10.4 mph 20.7 mph N/A Rain Light Rain
3:53 PM 51.1 °F - 48.9 °F 92% 30.10 in 5.0 mi SE 9.2 mph - 0.10 in Rain Light Rain
4:00 PM 51.8 °F - 48.2 °F 88% 30.09 in 6.0 mi SE 11.5 mph - N/A Rain Light Rain
4:53 PM 51.8 °F - 48.2 °F 88% 30.06 in 4.0 mi SE 15.0 mph - N/A Rain Rain
5:53 PM 51.8 °F - 48.2 °F 88% 30.03 in 4.0 mi ESE 9.2 mph - N/A Rain Rain
6:53 PM 51.8 °F - 48.2 °F 88% 30.03 in 8.0 mi Calm Calm - N/A Rain Light Rain
7:04 PM 51.8 °F - 48.2 °F 88% 30.03 in 5.0 mi North 3.5 mph - N/A Rain Light Rain
7:53 PM 50.0 °F - 46.9 °F 89% 30.03 in 10.0 mi Calm Calm - 0.02 in   Mostly Cloudy
8:53 PM 50.0 °F - 48.0 °F 93% 30.03 in 10.0 mi ESE 9.2 mph - N/A   Scattered Clouds
9:53 PM 50.0 °F - 46.9 °F 89% 30.03 in 10.0 mi SSE 4.6 mph - N/A   Mostly Cloudy
10:53 PM 46.9 °F - 46.0 °F 97% 30.04 in 10.0 mi Variable 4.6 mph - N/A   Mostly Cloudy
11:53 PM 46.9 °F - 44.1 °F 90% 30.04 in 10.0 mi SSE 6.9 mph - N/A   Partly Cloudy